#timestamp,LO_Frequency,Hit,StdDev 
1658671215.5,286047001.2,N
1658671235.4,286047001.1,N
1658671255.2,286046998.2,N
1658671275.0,286046998.7,N
1658671275.9,286046998.7,N
1658671295.8,286046998.3,N
1658671315.6,286046996.8,N
1658671335.4,286046997.1,N
1658671355.3,286046997.4,N
1658671375.1,286046996.8,N
1658671395.9,286046994.9,Y
1658671415.7,286046997.0,P
1658671435.5,286046997.9,N
1658671455.4,286046997.5,N
1658671475.2,286046996.7,Y
1658671495.1,286046998.7,P
1658671496.0,286046998.7,P
1658671515.8,286046999.3,N
1658671535.6,286046998.5,Y
1658671555.5,286046999.7,P
1658671575.3,286046999.9,N
1658671595.1,286047000.9,N
1658671615.9,286047000.4,N
1658671635.7,286046999.9,N
1658671655.6,286047000.1,N
1658671675.4,286047000.2,N
1658671695.2,286047000.1,N
1658671715.1,286047002.3,Y
1658671716.0,286047002.3,P
1658671735.8,286047001.6,N
1658671755.7,286047004.4,P
1658671775.5,286047003.9,N
1658671795.3,286047001.4,N
1658671815.2,286047001.9,N
1658671835.0,286047003.2,N
1658671835.9,286047003.2,N
1658671855.8,286047003.1,N
1658671875.6,286047004.1,Y
1658671895.4,286046999.9,P
1658671915.3,286047000.2,N
1658671935.1,286046999.7,N
1658671955.9,286046999.7,N
1658671975.7,286047001.4,N
1658671995.5,286047001.6,N
1658672015.4,286047004.4,Y
1658672035.2,286047000.3,P
1658672055.0,286047000.2,N
1658672055.9,286047000.2,N
1658672075.8,286047000.3,N
1658672095.6,286047000.8,Y
1658672115.5,286046998.5,P
1658672135.3,286046999.4,N
1658672155.1,286046999.5,N
1658672175.9,286046998.8,N
1658672195.7,286046999.5,N
1658672215.6,286046998.3,N
1658672235.4,286046999.3,N
1658672255.2,286046998.4,N
1658672275.1,286046998.9,N
1658672276.0,286046998.9,N
1658672295.8,286046999.2,N
1658672315.6,286046998.8,N
1658672335.5,286046998.7,N
1658672355.3,286046998.4,Y
1658672375.2,286047001.9,P
1658672395.9,286047003.5,N
1658672415.7,286047004.9,N
1658672435.6,286047008.3,Y
1658672455.4,286047007.5,P
1658672475.3,286047004.8,N
1658672495.1,286047005.4,N
1658672496.0,286047005.4,N
1658672515.8,286047003.7,N
1658672535.7,286047001.7,N
1658672555.5,286047002.1,N
1658672575.3,286047000.1,N
1658672595.2,286047000.1,N
1658672615.0,286047002.0,N
1658672615.9,286047002.0,N
1658672635.8,286047002.2,N
1658672655.6,286047002.3,N
1658672675.4,286047002.8,N
1658672695.3,286047002.3,N
1658672715.1,286047000.2,N
1658672735.8,286046999.7,N
1658672755.7,286047000.3,N
1658672775.5,286047000.9,N
1658672795.4,286046999.9,N
1658672815.2,286047002.7,N
1658672835.0,286047000.0,N
1658672835.9,286047000.0,N
1658672855.8,286047002.3,N
1658672875.6,286047002.7,N
1658672895.4,286046999.7,N
1658672915.3,286047000.2,N
1658672935.1,286046999.9,N
1658672955.9,286047000.4,N
1658672975.7,286046998.4,N
1658672995.5,286046998.4,N
1658673015.4,286047000.7,N
1658673035.2,286047000.3,N
1658673055.0,286047001.2,N
1658673055.9,286047001.2,N
1658673075.8,286047001.0,N
1658673095.6,286047001.1,N
1658673115.5,286047000.8,N
1658673135.3,286046998.7,N
1658673155.1,286046998.5,N
1658673175.9,286046998.2,N
1658673195.7,286046999.0,N
1658673215.5,286046998.5,N
1658673235.4,286046998.4,N
1658673255.2,286046998.9,N
1658673275.1,286046998.8,N
1658673276.0,286046998.8,N
1658673295.8,286046998.7,N
1658673315.6,286047000.9,N
1658673335.5,286046998.4,N
1658673355.3,286046998.3,N
1658673375.1,286046998.8,N
1658673395.9,286046998.7,N
1658673415.7,286046998.4,N
1658673435.3,286046998.1,N
1658673455.1,286046998.1,N
1658673475.9,286046998.4,N
1658673495.7,286047001.2,N
1658673515.6,286046998.7,N
1658673535.4,286046998.9,N
1658673555.2,286046998.8,N
1658673575.1,286046998.1,N
1658673576.0,286046998.1,N
1658673595.8,286046998.6,N
1658673615.6,286046998.3,N
1658673635.5,286046998.2,N
1658673655.3,286046998.2,N
1658673675.2,286046998.9,N
1658673695.9,286046998.7,N
1658673715.7,286046999.4,N
1658673735.6,286046999.4,N
1658673755.4,286047000.7,N
1658673775.2,286046998.5,N
1658673795.1,286046998.1,N
1658673796.0,286046998.1,N
1658673815.8,286046999.0,N
1658673835.7,286046998.8,N
1658673855.5,286046998.8,N
1658673875.3,286046998.8,N
1658673895.2,286046998.1,N
1658673915.0,286046998.3,N
1658673915.9,286046998.3,N
1658673935.8,286046999.2,N
1658673955.6,286046998.9,N
1658673975.4,286046998.5,N
1658673995.3,286046998.4,N
1658674015.1,286046999.1,N
1658674035.8,286046999.0,N
1658674055.7,286047001.2,N
1658674075.5,286047001.1,N
1658674095.4,286047000.7,N
1658674115.2,286047000.7,N
1658674135.0,286047000.6,N
1658674135.9,286047000.6,N
1658674155.8,286047000.8,N
1658674175.6,286047000.5,N
1658674195.4,286046998.1,N
1658674215.3,286046998.4,N
1658674235.1,286047000.8,N
1658674255.9,286047000.8,N
1658674275.7,286046998.8,N
1658674295.5,286046998.5,N
1658674315.4,286046999.0,N
1658674335.2,286047000.8,N
1658674355.0,286047001.1,N
1658674355.9,286047001.1,N
1658674375.8,286047000.8,N
1658674395.6,286046999.4,N
1658674415.5,286046998.3,N
1658674435.3,286046998.4,N
1658674455.1,286046999.3,N
1658674475.9,286046999.1,N
1658674495.7,286046999.1,N
1658674515.6,286046998.9,N
1658674535.4,286046998.4,N
1658674555.2,286046998.4,N
1658674575.1,286047001.2,N
1658674576.0,286047001.2,N
1658674595.8,286046998.9,N
1658674615.7,286046998.9,N
1658674635.5,286046999.2,N
1658674655.3,286046999.4,N
1658674675.2,286046998.9,N
1658674695.0,286046998.5,N
1658674695.9,286046998.5,N
1658674715.8,286046998.3,N
1658674735.6,286046998.8,N
1658674755.4,286046998.3,N
1658674775.3,286046998.3,N
1658674795.1,286046998.8,N
